Back to catalog

TITAN 3C TRANSTAGE DEB

AliveMEO
NORAD 43282·DEBRIS·🇺🇸 United States

Launched Feb 9, 1969 from Cape Canaveral Space Force Station

Loading…

Next Passes (next 24 hours)

TLE

FreshSource: Space-Track

Epoch: Sep 14, 2026, 06:59 UTC

1 43282U 69013C   26257.29115504 -.00000201  00000-0  00000-0 0  9991
2 43282   2.4012  61.0538 0277009 232.5833 125.4439  0.91410037 28401

Track TITAN 3C TRANSTAGE DEB in real time with AllMySat

Download on the App Store